Simultaneous Nadir Overpasses (SNOs) Predictions

Prediction of SNOs between GOES-15 and TERRA Satellite Orbit:

Table of predicted SNOs for the next 14.0 days since TLE Epoch: 12/1/2024
Index Date Time (GOES-15) GOES-15 Lat,Lon TERRA Lat,Lon Distance(km) Time Diff (sec)
1 12/02/2024 05:22:21 -0.16, 61.49 -0.61, 63.74 255.83 80
2 12/02/2024 17:42:09 0.15, 61.56 -0.42, 58.93 299.59 80
3 12/04/2024 17:21:10 0.15, 61.55 0.51, 63.34 203.12 80
4 12/05/2024 05:40:51 -0.14, 61.48 0.47, 58.55 332.77 80
5 12/07/2024 05:25:11 -0.14, 61.47 -0.46, 62.97 170.67 80
6 12/07/2024 17:45:00 0.13, 61.53 -0.55, 58.15 383.48 80
7 12/09/2024 17:23:59 0.13, 61.53 0.37, 62.57 119.33 80
8 12/10/2024 05:43:39 -0.12, 61.47 0.64, 57.79 417.84 80
9 12/12/2024 05:27:57 -0.12, 61.47 -0.29, 62.22 85.41 80
10 12/12/2024 17:47:45 0.11, 61.52 -0.77, 57.41 467.54 80
11 12/14/2024 17:26:43 0.12, 61.53 0.21, 61.83 34.66 80
